TimeEDT,TemperatureF,Dew PointF,Humidity,Sea Level PressureIn,VisibilityMPH,Wind Direction,Wind SpeedMPH,Gust SpeedMPH,PrecipitationIn,Events,Conditions,WindDirDegrees,DateUTC
12:54 AM,70.0,68.0,93,29.76,9.0,NNE,3.5,-,0.02,Rain,Light Rain,30,2013-08-31 04:54:00
1:54 AM,70.0,68.0,93,29.74,9.0,East,5.8,-,0.02,Rain,Light Rain,90,2013-08-31 05:54:00
2:54 AM,71.1,69.1,93,29.73,10.0,East,4.6,-,0.03,Rain,Light Rain,90,2013-08-31 06:54:00
3:08 AM,69.8,68.0,94,29.76,1.5,Variable,5.8,-,0.00,Rain,Light Rain,0,2013-08-31 07:08:00
3:15 AM,69.8,68.0,94,29.75,4.0,NNE,5.8,-,0.13,Rain,Heavy Rain,20,2013-08-31 07:15:00
3:54 AM,70.0,68.0,93,29.73,7.0,Calm,Calm,-,0.15,Rain,Light Rain,0,2013-08-31 07:54:00
4:54 AM,70.0,68.0,93,29.73,8.0,SE,5.8,-,0.00,,Overcast,130,2013-08-31 08:54:00
5:54 AM,70.0,68.0,93,29.73,8.0,Calm,Calm,-,N/A,,Overcast,0,2013-08-31 09:54:00
6:54 AM,72.0,69.1,91,29.73,9.0,South,5.8,-,N/A,,Overcast,180,2013-08-31 10:54:00
7:54 AM,73.0,70.0,90,29.73,5.0,Calm,Calm,-,0.00,,Light Drizzle,0,2013-08-31 11:54:00
8:54 AM,73.9,71.1,91,29.75,6.0,Calm,Calm,-,0.00,,Overcast,0,2013-08-31 12:54:00
9:54 AM,78.1,71.1,79,29.75,9.0,SSW,5.8,-,N/A,,Overcast,210,2013-08-31 13:54:00
10:54 AM,81.0,71.1,72,29.75,9.0,SW,5.8,-,N/A,,Overcast,230,2013-08-31 14:54:00
11:54 AM,80.1,70.0,71,29.75,9.0,West,8.1,-,N/A,,Overcast,260,2013-08-31 15:54:00
12:54 PM,82.0,70.0,67,29.74,9.0,WSW,11.5,-,N/A,,Mostly Cloudy,250,2013-08-31 16:54:00
1:54 PM,82.0,71.1,69,29.73,9.0,NW,10.4,16.1,N/A,,Overcast,310,2013-08-31 17:54:00
2:54 PM,80.1,71.1,74,29.73,10.0,WNW,12.7,18.4,N/A,,Mostly Cloudy,300,2013-08-31 18:54:00
3:54 PM,82.9,70.0,65,29.72,10.0,WNW,13.8,18.4,N/A,,Mostly Cloudy,290,2013-08-31 19:54:00
4:16 PM,80.6,69.8,70,29.75,10.0,WNW,9.2,-,N/A,,Mostly Cloudy,290,2013-08-31 20:16:00
4:54 PM,80.1,69.1,69,29.75,10.0,WNW,11.5,-,N/A,,Mostly Cloudy,300,2013-08-31 20:54:00
5:54 PM,78.1,68.0,71,29.76,10.0,WNW,12.7,-,N/A,,Mostly Cloudy,300,2013-08-31 21:54:00
6:54 PM,77.0,68.0,74,29.77,10.0,NW,9.2,-,N/A,,Mostly Cloudy,320,2013-08-31 22:54:00
7:54 PM,73.0,66.9,81,29.79,10.0,West,5.8,-,N/A,,Scattered Clouds,260,2013-08-31 23:54:00
8:28 PM,73.4,68.0,83,29.81,10.0,West,5.8,-,N/A,,Mostly Cloudy,260,2013-09-01 00:28:00
8:54 PM,73.0,68.0,84,29.80,10.0,West,5.8,-,N/A,,Overcast,260,2013-09-01 00:54:00
9:54 PM,73.0,68.0,84,29.82,10.0,West,5.8,-,N/A,,Overcast,280,2013-09-01 01:54:00
10:15 PM,71.6,68.0,88,29.84,10.0,West,5.8,-,N/A,,Mostly Cloudy,260,2013-09-01 02:15:00
10:39 PM,71.6,68.0,88,29.84,10.0,West,4.6,-,N/A,,Mostly Cloudy,280,2013-09-01 02:39:00
10:54 PM,72.0,68.0,87,29.83,10.0,West,6.9,-,N/A,,Mostly Cloudy,280,2013-09-01 02:54:00
11:03 PM,71.6,68.0,88,29.85,10.0,West,5.8,-,N/A,,Overcast,280,2013-09-01 03:03:00
11:54 PM,72.0,68.0,87,29.82,10.0,WNW,5.8,-,N/A,,Overcast,300,2013-09-01 03:54:00